| time (UTC) | temp F | wind direction | speed knots | gust knots | rain 1hr in | rain 24hr in | rain mn in | humidity % | barometer mb |
| 20260503233016 | 56 | 45 | 2.6 | 9.6 | 0.00 | 0.00 | 0.00 | 48 | 1010.3 |
| 20260503230016 | 57 | 68 | 2.6 | 10.4 | 0.00 | 0.00 | 0.00 | 45 | 1010.5 |
| 20260503223016 | 58 | 45 | 2.6 | 9.6 | 0.00 | 0.00 | 0.00 | 47 | 1010.7 |
| 20260503220036 | 58 | 45 | 2.6 | 9.6 | 0.00 | 0.00 | 0.00 | 45 | 1010.9 |
| 20260503213016 | 59 | 68 | 2.6 | 12.2 | 0.00 | 0.00 | 0.00 | 44 | 1010.8 |
| 20260503210016 | 60 | 45 | 2.6 | 8.7 | 0.00 | 0.00 | 0.00 | 43 | 1010.8 |
| 20260503203037 | 60 | 45 | 2.6 | 12.2 | 0.00 | 0.00 | 0.00 | 45 | 1010.9 |
| 20260503200017 | 58 | 45 | 2.6 | 10.4 | 0.00 | 0.00 | 0.00 | 48 | 1011.4 |
| 20260503193017 | 58 | 113 | 2.6 | 9.6 | 0.00 | 0.00 | 0.00 | 44 | 1011.8 |
| 20260503190016 | 59 | 45 | 3.5 | 11.3 | 0.00 | 0.00 | 0.00 | 43 | 1012.3 |
| 20260503183016 | 59 | 45 | 3.5 | 12.2 | 0.00 | 0.00 | 0.00 | 43 | 1012.7 |
| 20260503180016 | 59 | 113 | 3.5 | 10.4 | 0.00 | 0.00 | 0.00 | 47 | 1012.9 |
| 20260503173016 | 59 | 90 | 3.5 | 12.2 | 0.00 | 0.00 | 0.00 | 45 | 1013.4 |
| 20260503090157 | 31 | 0.0 | 0.0 | 0.00 | 0.01 | 0.00 | 92 | 1014.3 | |
| 20260503053016 | 31 | 0.0 | 0.0 | 0.00 | 0.04 | 0.00 | 89 | 1014.5 | |
| 20260503050016 | 32 | 0.0 | 0.0 | 0.00 | 0.04 | 0.00 | 88 | 1014.6 | |
| 20260503043036 | 34 | 0.0 | 0.0 | 0.00 | 0.04 | 0.00 | 83 | 1014.6 | |
| 20260503040016 | 37 | 0.0 | 0.0 | 0.00 | 0.05 | 0.05 | 79 | 1014.7 | |
| 20260503033016 | 38 | 0.0 | 0.0 | 0.00 | 0.05 | 0.05 | 78 | 1014.9 | |
| 20260503030016 | 38 | 0.0 | 0.0 | 0.00 | 0.05 | 0.05 | 79 | 1014.9 | |
| 20260503023016 | 39 | 0.0 | 0.0 | 0.00 | 0.05 | 0.05 | 77 | 1015.2 | |
| 20260503020016 | 39 | 0.0 | 0.0 | 0.00 | 0.05 | 0.05 | 73 | 1015.2 | |
| 20260503013016 | 39 | 0.0 | 0.0 | 0.00 | 0.05 | 0.05 | 73 | 1015.2 | |
| 20260503010016 | 40 | 0.0 | 0.9 | 0.00 | 0.05 | 0.05 | 69 | 1015.2 | |
| 20260503003016 | 40 | 0.0 | 1.7 | 0.00 | 0.05 | 0.05 | 67 | 1015.1 | |
| 20260503000016 | 40 | 0.0 | 2.6 | 0.00 | 0.05 | 0.05 | 65 | 1015.0 |